Wind_Speed
3 2 2 2 2 3 4 4 4 5 5 5 5 5 5 5 5 6 6 5 4 4 4 4 5 4 3 3 2 3 4 4 5 5 5 5 4 5 5 5 5 6 6 6 7 7 7 8 9
3 3 3 3 3 4 5 5 5 6 6 6 6 6 6 6 6 6 7 6 6 5 5 5 4 3 3 2 2 3 4 5 5 6 5 5 5 5 6 6 6 6 6 7 7 8 8 9 10
5 5 5 5 5 5 5 6 6 6 7 7 7 7 7 7 7 7 7 7 7 6 5 5 4 3 3 3 3 4 5 5 6 6 6 6 6 6 6 6 7 7 7 8 8 8 8 9 10
5 6 6 6 6 7 6 7 7 7 7 7 7 7 8 8 8 8 8 7 7 6 5 5 4 4 4 4 4 4 5 5 6 7 7 7 7 7 6 6 6 6 7 8 8 9 9 9 10
6 7 7 7 7 7 8 8 8 8 8 8 8 8 8 8 9 9 8 7 7 6 6 5 5 4 4 4 3 4 5 5 6 7 8 8 7 6 6 6 6 6 7 7 8 8 9 10 10
7 7 8 8 8 8 9 10 10 9 9 9 9 9 9 9 9 8 8 7 6 6 6 6 4 4 4 3 3 4 5 5 7 8 7 7 7 7 6 6 6 6 6 7 7 8 9 10 10
8 8 8 8 9 9 10 10 10 9 9 9 10 10 10 10 9 9 8 7 6 6 6 5 4 3 3 3 3 5 5 6 7 7 8 8 7 6 6 6 6 6 6 6 6 7 8 9 9
8 8 9 9 9 9 10 10 10 10 10 10 10 10 10 10 9 9 8 7 7 6 5 5 4 3 2 2 3 4 5 5 7 7 8 8 8 7 7 6 6 5 5 5 4 5 6 7 8
9 9 9 9 10 10 10 10 10 11 11 11 10 10 10 10 9 8 8 7 7 6 6 5 4 3 2 2 3 4 4 5 6 7 8 8 8 8 7 7 6 5 4 4 4 4 5 6 7
9 9 9 11 10 10 11 11 10 11 11 11 11 11 11 10 9 8 7 7 7 7 6 5 4 3 2 1 3 3 4 5 7 7 8 8 8 8 8 7 6 5 3 3 3 3 4 6 7
9 9 10 11 11 11 11 12 12 11 12 12 12 12 11 11 10 9 8 7 7 6 5 5 4 2 1 1 2 3 4 5 7 8 9 9 9 9 8 7 6 5 4 3 3 3 4 5 6
10 11 11 11 11 12 12 12 12 12 12 12 12 11 11 10 10 9 8 7 6 6 6 5 4 2 1 0 1 3 4 6 7 9 9 9 10 9 8 7 6 6 5 4 3 3 3 4 5
11 11 11 11 11 12 12 13 13 12 12 12 11 10 10 11 10 9 9 7 6 6 5 5 4 2 1 0 1 2 4 6 7 9 9 10 10 9 8 7 7 6 5 4 3 2 1 3 4
11 12 11 11 12 12 13 13 13 13 12 12 11 10 10 11 9 9 9 7 7 5 5 5 4 3 2 1 1 2 4 6 7 9 9 10 9 9 8 8 7 6 5 4 3 2 1 2 3
11 11 11 12 12 13 13 13 13 12 12 13 11 9 9 8 8 7 7 7 7 6 5 5 5 4 3 1 1 2 3 5 7 8 9 10 10 9 9 8 8 7 6 5 4 4 3 3 3
11 11 11 11 12 12 12 12 12 11 12 11 10 8 7 7 7 7 6 6 6 6 5 6 6 4 3 2 2 2 3 5 7 8 9 9 10 10 9 9 8 7 6 6 5 5 5 4 4
11 12 12 11 11 12 12 12 12 11 11 10 10 9 8 8 7 6 6 6 6 7 6 6 6 5 3 3 2 2 3 5 7 8 8 9 10 10 10 9 9 8 7 6 6 6 6 6 6
11 11 12 12 11 11 11 11 11 11 11 10 10 9 9 8 7 7 7 7 7 7 7 6 7 6 4 3 2 2 3 5 6 7 8 9 9 10 10 9 9 8 7 7 7 7 7 7 7
11 11 12 12 11 11 10 10 11 11 11 10 9 9 9 9 9 8 8 8 7 7 7 7 7 6 4 3 2 2 3 4 5 6 7 8 9 9 10 9 9 9 8 8 8 7 7 7 7
12 12 12 12 11 11 11 11 11 11 11 11 10 10 9 9 9 9 9 9 8 7 7 7 7 6 5 3 2 2 2 3 5 6 7 7 8 8 9 9 9 9 8 8 8 8 7 7 7
12 12 12 12 12 12 12 12 12 11 10 10 10 9 9 9 9 9 10 9 9 9 8 8 7 7 5 4 3 1 2 2 4 5 6 7 8 8 8 8 9 9 8 8 8 8 7 7 7
13 12 12 12 12 12 12 12 12 11 11 11 10 10 10 10 10 10 10 9 9 9 8 7 8 8 6 5 3 2 1 1 3 4 5 6 7 7 8 8 8 8 8 8 8 8 8 7 6
14 13 13 12 12 13 13 13 13 12 12 12 11 11 11 10 11 11 10 11 10 9 9 8 8 8 7 5 4 3 1 1 2 3 4 5 6 6 7 7 7 7 7 7 7 7 7 7 6
14 13 12 13 13 13 13 13 14 14 12 12 11 12 12 12 11 12 11 11 11 11 10 9 9 9 7 6 5 4 2 2 1 2 3 4 4 5 6 6 6 7 7 7 7 7 7 7 6
14 13 12 12 11 11 13 14 15 13 12 12 13 13 13 13 12 13 12 12 12 11 11 10 9 9 8 7 6 5 4 2 2 1 2 3 4 4 4 5 5 5 6 6 6 6 7 7 6
14 14 13 10 9 10 13 14 15 14 13 13 13 13 13 13 12 12 13 13 13 12 12 12 10 10 10 8 7 6 5 4 3 2 1 2 2 3 4 4 5 5 5 5 5 5 5 6 6
15 15 14 13 12 11 12 14 14 13 13 12 12 13 13 13 13 12 13 14 14 14 14 13 12 11 10 9 8 7 6 5 3 2 1 1 1 2 2 3 3 3 4 4 4 4 4 5 5
16 15 15 15 14 13 12 12 14 13 12 12 12 13 14 14 13 13 13 14 15 15 15 14 13 12 11 11 10 8 7 6 4 3 2 1 1 0 1 1 2 2 3 3 3 3 3 4 4
16 16 16 16 15 14 12 13 14 13 12 12 13 13 14 14 14 13 14 15 16 16 16 15 14 14 13 12 11 10 8 7 6 5 3 2 1 1 1 0 1 1 2 2 2 3 3 3 4
17 17 17 17 16 15 15 15 14 12 12 12 13 14 14 15 14 14 13 14 16 16 16 16 15 15 14 13 12 11 10 9 8 7 6 4 3 2 1 1 1 1 1 1 2 2 2 3 3
Wind_Direction
302 298 291 277 268 268 276 274 275 277 277 286 281 275 268 269 264 262 256 255 258 265 276 285 295 301 305 321 334 344 340 338 342 343 338 332 326 317 306 296 289 285 278 271 265 251 243 236 233
286 280 274 263 258 268 277 268 271 275 278 276 274 278 272 266 268 261 257 258 261 266 276 286 291 301 308 319 342 352 348 346 346 343 338 330 320 314 307 297 286 283 277 273 266 254 246 238 237
277 272 265 255 259 267 273 267 266 274 275 271 271 271 273 272 270 269 263 262 268 270 278 286 288 297 310 322 330 341 349 355 350 342 335 326 317 313 309 302 292 284 279 273 265 258 249 243 239
276 269 258 254 259 264 267 267 264 273 275 270 270 269 268 268 269 270 266 267 273 274 279 284 283 293 301 307 328 340 347 350 343 336 333 328 323 317 313 308 297 289 284 276 266 258 250 243 238
272 267 261 259 261 265 266 268 273 275 275 277 275 270 269 266 267 267 265 264 269 271 275 279 278 288 302 319 338 342 346 348 340 338 337 336 330 321 316 310 304 293 285 276 264 256 246 241 238
266 264 265 267 267 268 269 269 275 275 274 274 274 274 271 268 267 263 260 260 264 271 275 280 283 291 294 310 333 347 354 351 345 344 345 341 333 323 320 322 315 306 292 277 264 257 247 241 237
263 261 262 269 270 270 270 270 269 270 271 271 273 277 273 265 263 260 260 260 262 270 277 281 282 280 285 312 343 354 354 353 351 350 349 347 344 339 332 330 323 312 299 285 269 253 245 240 237
259 262 261 267 270 268 268 268 267 269 273 272 274 276 273 266 262 256 252 249 258 271 274 279 276 270 280 331 346 353 355 357 356 352 351 349 349 345 343 340 335 325 311 293 274 253 242 237 233
264 266 268 266 271 271 267 269 269 269 272 272 271 271 271 267 262 253 248 248 259 270 267 266 265 262 270 331 344 352 358 360 357 355 356 355 352 349 346 342 338 335 321 300 284 263 240 232 230
266 266 268 268 271 270 269 271 272 270 270 270 269 270 271 265 257 252 253 253 258 268 266 260 260 250 276 320 348 356 1 4 2 2 1 0 357 352 348 346 343 341 334 311 289 267 243 232 228
267 266 268 271 272 272 269 270 273 271 269 269 271 269 267 262 258 257 254 252 255 259 262 260 244 255 267 312 5 12 8 13 12 11 6 4 0 356 355 353 352 345 334 323 298 271 250 234 228
268 268 268 272 273 274 272 272 275 273 272 269 271 268 266 261 259 253 248 255 258 256 252 250 239 227 224 259 7 11 14 18 16 15 10 5 2 2 4 3 0 358 348 338 321 288 253 232 225
267 266 268 270 271 273 274 277 277 274 273 273 272 267 261 262 258 250 247 248 246 252 246 249 225 205 199 248 357 12 19 20 15 13 10 7 6 8 10 11 10 7 2 358 352 322 249 213 207
267 267 266 268 269 272 273 274 275 273 272 272 272 269 262 258 249 245 247 242 238 243 242 239 204 201 201 168 32 35 26 18 16 15 11 9 9 10 12 13 12 11 13 20 32 54 107 159 177
265 268 267 267 270 272 273 273 272 272 271 270 269 266 263 251 244 243 248 238 234 230 230 227 201 192 186 155 65 46 31 22 20 16 13 13 13 13 14 19 20 23 31 43 56 74 100 126 141
265 267 267 268 272 274 272 271 271 270 269 267 262 261 257 248 244 243 237 236 236 228 223 212 197 185 176 163 108 60 36 28 25 21 17 17 19 20 21 24 27 33 44 55 66 76 92 109 121
268 268 268 269 273 276 273 268 270 270 268 261 256 254 252 251 246 245 238 233 233 225 215 201 195 184 177 161 124 69 43 31 26 21 19 19 22 26 29 31 34 42 52 61 71 79 90 100 108
266 269 270 272 276 278 275 267 266 273 268 261 259 256 255 249 251 249 232 226 229 223 216 202 192 184 178 158 129 82 48 35 29 26 23 24 27 31 33 36 42 49 56 66 74 80 88 96 102
263 266 270 274 274 275 273 270 269 271 269 260 258 258 259 249 245 237 223 224 224 220 209 199 195 190 183 160 136 99 58 37 32 29 27 29 31 35 38 41 46 53 61 70 74 78 85 92 97
258 261 266 273 271 271 268 268 272 270 260 256 256 255 253 248 245 237 221 222 217 211 207 198 192 186 174 161 142 103 66 42 35 31 32 33 36 40 43 46 51 56 64 71 74 77 82 89 91
256 259 264 266 267 266 267 267 268 264 260 255 250 252 254 248 238 233 223 221 216 210 206 195 190 187 176 171 164 128 79 52 43 37 38 39 41 44 48 50 54 59 66 71 73 76 79 83 87
255 255 256 262 263 264 264 267 263 264 261 255 249 250 250 250 236 232 225 219 214 206 204 197 194 192 187 183 178 163 116 71 52 44 44 43 44 48 51 54 57 61 67 71 71 73 76 79 83
253 252 253 259 260 262 262 264 264 263 260 254 247 247 248 248 239 232 224 218 213 207 205 205 201 195 191 190 187 179 168 122 74 56 52 49 48 52 55 57 60 63 68 71 72 72 72 74 76
251 253 253 256 259 261 260 263 261 261 257 257 250 246 245 245 238 231 226 219 215 210 208 206 205 199 197 199 197 190 184 167 124 70 54 53 52 54 55 57 62 65 68 70 71 72 70 69 69
246 248 252 257 261 264 263 265 262 262 259 259 254 248 244 241 240 236 226 220 215 214 210 207 209 204 201 203 206 203 196 187 180 132 69 61 61 61 60 61 62 64 66 68 71 72 71 65 65
242 243 244 245 254 265 266 267 265 265 262 258 252 245 239 236 239 235 230 223 218 215 211 209 211 209 209 209 212 214 209 204 198 176 116 76 73 74 69 63 61 64 65 67 70 70 65 62 62
240 239 239 236 239 245 258 267 268 262 260 255 250 242 235 233 235 235 228 224 222 217 214 212 214 213 212 213 215 216 214 213 207 199 181 122 88 77 72 59 56 60 66 66 62 60 59 59 56
240 238 235 236 241 240 246 259 267 268 261 256 252 243 233 233 233 230 226 224 225 223 219 216 215 214 215 217 216 217 217 218 215 212 205 193 157 90 72 50 50 55 63 57 52 51 52 51 50
238 238 237 238 241 244 242 252 259 266 265 259 253 245 236 231 232 232 230 229 226 225 221 219 221 220 219 217 216 219 221 223 221 221 219 215 218 222 205 165 47 39 38 36 39 42 42 41 40
237 236 237 238 238 241 241 249 257 259 262 260 257 250 241 232 232 233 234 229 226 223 223 222 225 223 221 218 217 222 225 225 226 229 229 226 226 226 218 224 255 296 346 359 7 12 15 17 23
Height
5882 5883 5883 5884 5885 5885 5884 5884 5884 5885 5885 5885 5885 5885 5885 5886 5887 5889 5886 5885 5885 5886 5885 5885 5885 5884 5884 5884 5883 5883 5882 5881 5881 5880 5879 5879 5878 5878 5877 5877 5877 5877 5877 5877 5877 5877 5878 5879 5880
5882 5882 5883 5884 5884 5884 5884 5883 5884 5884 5884 5884 5884 5885 5885 5885 5886 5885 5884 5884 5885 5885 5885 5885 5885 5884 5884 5883 5883 5882 5882 5881 5880 5879 5878 5878 5877 5877 5876 5876 5875 5875 5875 5875 5875 5876 5876 5877 5878
5882 5882 5883 5883 5883 5883 5883 5883 5883 5883 5883 5883 5884 5884 5884 5885 5884 5884 5884 5884 5884 5885 5885 5884 5884 5884 5884 5883 5883 5882 5881 5880 5879 5878 5878 5877 5876 5875 5875 5874 5874 5873 5873 5873 5874 5874 5874 5876 5877
5881 5881 5882 5882 5882 5882 5882 5882 5882 5882 5882 5882 5883 5883 5883 5883 5883 5883 5883 5884 5884 5884 5884 5884 5884 5884 5883 5883 5882 5881 5881 5880 5879 5878 5876 5875 5875 5874 5873 5872 5872 5872 5871 5871 5872 5872 5873 5873 5874
5879 5880 5881 5880 5880 5881 5881 5880 5880 5881 5881 5881 5882 5882 5882 5882 5882 5882 5882 5883 5883 5883 5883 5883 5883 5883 5883 5882 5882 5881 5880 5879 5878 5877 5876 5874 5873 5872 5872 5871 5870 5870 5869 5869 5870 5870 5871 5871 5872
5879 5879 5880 5879 5879 5879 5879 5879 5879 5880 5880 5880 5881 5881 5881 5881 5881 5881 5881 5882 5882 5883 5882 5882 5882 5882 5882 5881 5881 5880 5879 5878 5877 5876 5875 5873 5872 5871 5870 5869 5868 5867 5867 5867 5867 5868 5868 5869 5870
5878 5878 5877 5877 5878 5878 5878 5878 5878 5878 5878 5879 5879 5880 5879 5879 5880 5880 5881 5881 5882 5882 5882 5882 5881 5881 5881 5881 5880 5880 5879 5878 5877 5875 5874 5873 5871 5870 5869 5867 5867 5866 5865 5865 5865 5866 5867 5867 5868
5876 5877 5876 5876 5876 5876 5877 5876 5877 5877 5877 5878 5878 5878 5878 5878 5879 5879 5879 5880 5880 5881 5881 5881 5881 5881 5881 5881 5880 5879 5879 5877 5876 5875 5873 5872 5870 5869 5868 5866 5866 5865 5864 5864 5864 5864 5865 5866 5867
5874 5876 5874 5874 5874 5875 5875 5875 5875 5875 5876 5876 5876 5877 5877 5877 5877 5877 5878 5879 5879 5880 5880 5880 5880 5880 5880 5880 5880 5879 5878 5877 5876 5874 5873 5871 5870 5868 5867 5866 5865 5864 5863 5863 5863 5863 5863 5864 5865
5873 5873 5873 5873 5873 5873 5873 5873 5873 5874 5874 5874 5875 5875 5875 5875 5876 5876 5877 5878 5878 5879 5879 5879 5880 5880 5880 5880 5880 5879 5878 5877 5875 5874 5872 5871 5869 5868 5866 5865 5864 5863 5862 5862 5861 5862 5862 5863 5864
5871 5871 5871 5871 5871 5871 5871 5872 5871 5872 5872 5872 5873 5873 5873 5874 5875 5875 5876 5876 5877 5878 5878 5879 5879 5879 5879 5879 5879 5879 5878 5876 5875 5873 5872 5871 5869 5867 5866 5864 5863 5862 5861 5861 5860 5860 5861 5861 5862
5869 5869 5869 5869 5869 5869 5869 5870 5870 5870 5871 5871 5870 5871 5872 5872 5873 5874 5874 5875 5876 5877 5877 5878 5878 5879 5879 5879 5879 5878 5878 5876 5875 5874 5872 5871 5869 5867 5866 5864 5863 5861 5861 5860 5860 5860 5860 5861 5862
5867 5868 5868 5868 5868 5868 5868 5868 5868 5868 5869 5868 5869 5869 5870 5871 5871 5872 5873 5874 5875 5876 5876 5877 5877 5878 5879 5879 5879 5878 5878 5877 5876 5874 5873 5871 5869 5867 5866 5864 5863 5861 5860 5859 5859 5859 5859 5860 5861
5866 5866 5866 5866 5866 5866 5866 5866 5866 5866 5867 5867 5867 5867 5868 5869 5870 5871 5872 5873 5874 5875 5875 5876 5877 5878 5878 5879 5879 5879 5878 5877 5876 5874 5873 5871 5869 5868 5866 5864 5863 5861 5860 5859 5859 5859 5859 5860 5861
5863 5864 5864 5864 5864 5864 5864 5864 5864 5865 5865 5865 5866 5866 5867 5867 5868 5870 5871 5872 5873 5874 5875 5876 5877 5878 5878 5879 5879 5879 5878 5877 5876 5875 5873 5872 5870 5868 5866 5865 5863 5862 5860 5860 5859 5859 5859 5860 5861
5861 5862 5862 5862 5862 5862 5864 5863 5863 5863 5863 5864 5864 5865 5865 5866 5868 5869 5870 5871 5872 5873 5874 5875 5876 5877 5878 5879 5879 5879 5879 5878 5877 5875 5874 5872 5871 5869 5867 5865 5864 5862 5861 5861 5860 5860 5861 5861 5862
5859 5860 5860 5860 5860 5860 5861 5860 5861 5861 5862 5862 5863 5864 5865 5865 5867 5868 5869 5870 5871 5872 5874 5875 5876 5877 5878 5879 5879 5879 5879 5878 5877 5876 5875 5873 5871 5870 5868 5866 5865 5864 5863 5862 5862 5862 5862 5862 5863
5857 5857 5857 5858 5858 5858 5858 5859 5859 5859 5860 5860 5861 5862 5864 5864 5866 5867 5868 5869 5870 5872 5873 5875 5876 5877 5878 5879 5879 5880 5879 5879 5878 5877 5875 5874 5872 5871 5869 5868 5866 5865 5864 5864 5864 5863 5864 5864 5865
5855 5855 5855 5856 5856 5857 5857 5857 5857 5858 5858 5859 5860 5861 5862 5863 5865 5866 5867 5868 5870 5871 5872 5874 5876 5877 5878 5879 5879 5880 5880 5879 5879 5878 5876 5875 5873 5872 5870 5869 5868 5867 5866 5866 5866 5866 5866 5866 5867
5853 5853 5853 5854 5854 5855 5855 5855 5856 5856 5857 5858 5859 5859 5860 5862 5864 5865 5866 5868 5869 5870 5872 5874 5875 5877 5878 5879 5880 5880 5880 5880 5879 5879 5877 5876 5875 5873 5872 5871 5870 5869 5868 5868 5868 5868 5868 5869 5869
5851 5851 5852 5852 5852 5853 5854 5854 5854 5855 5855 5856 5857 5858 5859 5861 5862 5864 5865 5866 5868 5870 5871 5873 5875 5877 5878 5879 5880 5880 5880 5880 5880 5879 5879 5878 5876 5875 5874 5873 5872 5871 5870 5870 5870 5870 5870 5871 5871
5848 5849 5849 5849 5850 5851 5852 5852 5852 5853 5854 5855 5856 5857 5858 5859 5861 5862 5864 5865 5867 5869 5871 5873 5874 5876 5878 5879 5880 5880 5881 5881 5881 5880 5880 5879 5878 5876 5875 5874 5874 5873 5873 5872 5872 5872 5873 5873 5873
5845 5846 5847 5848 5848 5849 5849 5850 5851 5851 5852 5853 5854 5855 5856 5858 5859 5861 5862 5864 5866 5868 5870 5872 5874 5876 5877 5879 5880 5880 5881 5881 5881 5881 5881 5880 5879 5878 5877 5876 5876 5875 5875 5875 5875 5875 5875 5875 5875
5843 5844 5845 5845 5846 5847 5848 5848 5848 5849 5849 5851 5852 5853 5854 5856 5858 5859 5861 5863 5865 5867 5869 5871 5873 5875 5877 5878 5879 5880 5881 5881 5882 5882 5881 5881 5880 5880 5879 5878 5878 5877 5877 5877 5877 5877 5877 5877 5877
5840 5842 5843 5843 5844 5845 5845 5846 5847 5847 5847 5849 5850 5851 5852 5854 5856 5858 5860 5862 5864 5866 5868 5870 5872 5874 5876 5878 5879 5880 5881 5882 5882 5882 5882 5882 5882 5881 5881 5880 5880 5879 5879 5879 5879 5879 5879 5879 5879
5837 5839 5841 5842 5843 5843 5843 5843 5845 5845 5846 5846 5847 5849 5850 5852 5854 5856 5858 5860 5862 5864 5867 5869 5871 5873 5875 5877 5878 5880 5881 5881 5882 5882 5883 5883 5882 5882 5882 5882 5881 5881 5881 5881 5881 5881 5881 5881 5881
5834 5836 5838 5839 5840 5841 5841 5841 5841 5842 5843 5844 5845 5847 5848 5850 5852 5854 5856 5858 5861 5863 5865 5867 5870 5872 5874 5876 5877 5879 5880 5881 5882 5882 5883 5883 5883 5883 5883 5883 5883 5883 5883 5883 5883 5882 5882 5882 5882
5831 5833 5834 5836 5837 5838 5839 5839 5840 5840 5841 5842 5843 5844 5846 5848 5850 5852 5854 5856 5859 5861 5863 5866 5868 5870 5872 5874 5876 5878 5879 5881 5881 5882 5883 5883 5883 5884 5884 5884 5884 5884 5884 5884 5884 5884 5884 5883 5883
5828 5830 5831 5832 5834 5836 5837 5839 5837 5838 5839 5840 5841 5842 5844 5846 5848 5850 5852 5854 5856 5859 5861 5864 5866 5868 5870 5873 5875 5877 5878 5880 5881 5882 5883 5883 5884 5884 5884 5885 5885 5885 5885 5885 5885 5885 5885 5885 5884
5824 5826 5828 5830 5831 5832 5834 5837 5834 5835 5836 5838 5839 5840 5842 5844 5846 5848 5850 5851 5854 5857 5859 5862 5864 5866 5868 5871 5873 5875 5877 5878 5880 5881 5882 5883 5883 5884 5884 5885 5885 5885 5885 5885 5885 5885 5885 5885 5885